Time,TemperatureF,DewpointF,PressureIn,WindDirection,WindDirectionDegrees,WindSpeedMPH,WindSpeedGustMPH,Humidity,HourlyPrecipIn,Conditions,Clouds,dailyrainin,SoftwareType,DateUTC
2014-01-07 00:02:00,21.9,11.6,30.68,SW,226,1.0,21.0,64,0.00,,,0.00,Wunderground v.1.15,2014-01-07 06:02:00,
2014-01-07 00:08:00,21.9,11.6,30.68,SW,228,1.0,21.0,64,0.00,,,0.00,Wunderground v.1.15,2014-01-07 06:08:00,
2014-01-07 00:14:00,21.8,11.5,30.68,SW,228,0.0,21.0,64,0.00,,,0.00,Wunderground v.1.15,2014-01-07 06:14:00,
2014-01-07 00:19:00,21.7,11.4,30.68,SW,228,0.0,21.0,64,0.00,,,0.00,Wunderground v.1.15,2014-01-07 06:19:00,
2014-01-07 00:25:00,21.6,11.3,30.68,SW,229,0.0,21.0,64,0.00,,,0.00,Wunderground v.1.15,2014-01-07 06:25:00,
2014-01-07 00:30:00,21.6,11.3,30.68,SW,228,0.0,21.0,64,0.00,,,0.00,Wunderground v.1.15,2014-01-07 06:30:00,
2014-01-07 00:36:00,21.5,11.5,30.67,SW,228,0.0,21.0,65,0.00,,,0.00,Wunderground v.1.15,2014-01-07 06:36:00,
2014-01-07 00:41:00,21.4,11.5,30.67,SW,229,0.0,21.0,65,0.00,,,0.00,Wunderground v.1.15,2014-01-07 06:41:00,
2014-01-07 00:46:00,21.4,11.5,30.67,SW,228,0.0,21.0,65,0.00,,,0.00,Wunderground v.1.15,2014-01-07 06:46:00,
2014-01-07 00:52:00,21.4,11.1,30.67,SW,228,0.0,21.0,64,0.00,,,0.00,Wunderground v.1.15,2014-01-07 06:52:00,
2014-01-07 00:57:00,21.4,11.1,30.67,SW,228,0.0,21.0,64,0.00,,,0.00,Wunderground v.1.15,2014-01-07 06:57:00,
2014-01-07 01:03:00,21.5,11.2,30.66,SW,228,0.0,21.0,64,0.00,,,0.00,Wunderground v.1.15,2014-01-07 07:03:00,
2014-01-07 01:09:00,21.3,11.4,30.66,SW,228,0.0,21.0,65,0.00,,,0.00,Wunderground v.1.15,2014-01-07 07:09:00,
2014-01-07 01:15:00,21.1,11.2,30.66,SW,228,0.0,21.0,65,0.00,,,0.00,Wunderground v.1.15,2014-01-07 07:15:00,
2014-01-07 01:21:00,20.7,11.1,30.65,SW,228,0.0,21.0,66,0.00,,,0.00,Wunderground v.1.15,2014-01-07 07:21:00,
2014-01-07 01:26:00,20.6,11.4,30.65,SW,228,0.0,21.0,67,0.00,,,0.00,Wunderground v.1.15,2014-01-07 07:26:00,
2014-01-07 01:32:00,20.5,11.6,30.65,SW,228,0.0,21.0,68,0.00,,,0.00,Wunderground v.1.15,2014-01-07 07:32:00,
2014-01-07 01:37:00,20.5,11.3,30.64,SW,222,1.0,21.0,67,0.00,,,0.00,Wunderground v.1.15,2014-01-07 07:37:00,
2014-01-07 01:43:00,20.4,11.5,30.65,SW,224,2.0,21.0,68,0.00,,,0.00,Wunderground v.1.15,2014-01-07 07:43:00,
2014-01-07 01:49:00,20.2,11.3,30.64,SW,228,1.0,21.0,68,0.00,,,0.00,Wunderground v.1.15,2014-01-07 07:49:00,
2014-01-07 01:55:00,20.0,11.5,30.64,SW,228,1.0,21.0,69,0.00,,,0.00,Wunderground v.1.15,2014-01-07 07:55:00,
2014-01-07 02:00:00,20.0,11.5,30.64,SW,226,1.0,1.0,69,0.00,,,0.00,Wunderground v.1.15,2014-01-07 08:00:00,
2014-01-07 02:06:00,20.0,11.5,30.64,SW,217,1.0,21.0,69,0.00,,,0.00,Wunderground v.1.15,2014-01-07 08:06:00,
2014-01-07 02:12:00,20.0,11.8,30.64,SW,225,1.0,21.0,70,0.00,,,0.00,Wunderground v.1.15,2014-01-07 08:12:00,
2014-01-07 02:17:00,20.0,11.8,30.64,SW,224,1.0,21.0,70,0.00,,,0.00,Wunderground v.1.15,2014-01-07 08:17:00,
2014-01-07 02:23:00,19.8,11.6,30.64,SW,224,0.0,21.0,70,0.00,,,0.00,Wunderground v.1.15,2014-01-07 08:23:00,
2014-01-07 02:28:00,19.9,11.7,30.64,SSW,212,0.0,21.0,70,0.00,,,0.00,Wunderground v.1.15,2014-01-07 08:28:00,
2014-01-07 02:34:00,20.0,11.5,30.64,South,172,1.0,21.0,69,0.00,,,0.00,Wunderground v.1.15,2014-01-07 08:34:00,
2014-01-07 02:39:00,20.1,11.6,30.64,South,170,1.0,21.0,69,0.00,,,0.00,Wunderground v.1.15,2014-01-07 08:39:00,
2014-01-07 02:45:00,20.1,11.6,30.65,South,171,0.0,21.0,69,0.00,,,0.00,Wunderground v.1.15,2014-01-07 08:45:00,
2014-01-07 02:50:00,20.1,11.6,30.65,South,178,1.0,21.0,69,0.00,,,0.00,Wunderground v.1.15,2014-01-07 08:50:00,
2014-01-07 02:56:00,20.4,11.5,30.65,SW,218,1.0,21.0,68,0.00,,,0.00,Wunderground v.1.15,2014-01-07 08:56:00,
2014-01-07 03:01:00,20.4,11.5,30.65,SW,226,1.0,21.0,68,0.00,,,0.00,Wunderground v.1.15,2014-01-07 09:01:00,
2014-01-07 03:07:00,20.3,11.4,30.65,SW,226,1.0,21.0,68,0.00,,,0.00,Wunderground v.1.15,2014-01-07 09:07:00,
2014-01-07 03:13:00,20.2,11.7,30.65,SW,227,1.0,21.0,69,0.00,,,0.00,Wunderground v.1.15,2014-01-07 09:13:00,
2014-01-07 03:18:00,20.2,11.3,30.65,SW,222,1.0,21.0,68,0.00,,,0.00,Wunderground v.1.15,2014-01-07 09:18:00,
2014-01-07 03:24:00,20.2,11.3,30.65,SW,221,1.0,21.0,68,0.00,,,0.00,Wunderground v.1.15,2014-01-07 09:24:00,
2014-01-07 03:30:00,19.9,11.4,30.65,SW,222,0.0,21.0,69,0.00,,,0.00,Wunderground v.1.15,2014-01-07 09:30:00,
2014-01-07 03:35:00,19.8,11.3,30.65,SW,222,0.0,21.0,69,0.00,,,0.00,Wunderground v.1.15,2014-01-07 09:35:00,
2014-01-07 03:41:00,19.7,11.5,30.66,SW,222,0.0,21.0,70,0.00,,,0.00,Wunderground v.1.15,2014-01-07 09:41:00,
2014-01-07 03:46:00,19.7,11.5,30.66,SW,222,0.0,21.0,70,0.00,,,0.00,Wunderground v.1.15,2014-01-07 09:46:00,
2014-01-07 03:52:00,19.6,11.7,30.66,SW,227,0.0,21.0,71,0.00,,,0.00,Wunderground v.1.15,2014-01-07 09:52:00,
2014-01-07 03:58:00,19.5,11.6,30.66,SW,226,0.0,21.0,71,0.00,,,0.00,Wunderground v.1.15,2014-01-07 09:58:00,
2014-01-07 04:03:00,19.4,11.2,30.66,SW,226,0.0,21.0,70,0.00,,,0.00,Wunderground v.1.15,2014-01-07 10:03:00,
2014-01-07 04:09:00,19.0,11.1,30.66,SW,226,0.0,21.0,71,0.00,,,0.00,Wunderground v.1.15,2014-01-07 10:09:00,
2014-01-07 04:14:00,18.8,11.3,30.65,SW,226,0.0,21.0,72,0.00,,,0.00,Wunderground v.1.15,2014-01-07 10:14:00,
2014-01-07 04:20:00,18.5,11.6,30.65,SW,226,0.0,21.0,74,0.00,,,0.00,Wunderground v.1.15,2014-01-07 10:20:00,
2014-01-07 04:25:00,18.4,11.5,30.66,SW,226,0.0,21.0,74,0.00,,,0.00,Wunderground v.1.15,2014-01-07 10:25:00,
2014-01-07 04:31:00,18.2,11.6,30.66,SW,227,0.0,21.0,75,0.00,,,0.00,Wunderground v.1.15,2014-01-07 10:31:00,
2014-01-07 04:36:00,18.3,11.7,30.66,SW,229,0.0,21.0,75,0.00,,,0.00,Wunderground v.1.15,2014-01-07 10:36:00,
2014-01-07 04:42:00,18.5,11.9,30.65,WSW,248,0.0,21.0,75,0.00,,,0.00,Wunderground v.1.15,2014-01-07 10:42:00,
2014-01-07 04:48:00,18.5,11.9,30.65,WSW,248,0.0,21.0,75,0.00,,,0.00,Wunderground v.1.15,2014-01-07 10:48:00,
2014-01-07 04:53:00,18.6,12.0,30.65,WSW,248,0.0,21.0,75,0.00,,,0.00,Wunderground v.1.15,2014-01-07 10:53:00,
2014-01-07 04:59:00,18.7,11.8,30.65,SW,231,0.0,21.0,74,0.00,,,0.00,Wunderground v.1.15,2014-01-07 10:59:00,
2014-01-07 05:04:00,18.7,11.8,30.65,SW,235,0.0,21.0,74,0.00,,,0.00,Wunderground v.1.15,2014-01-07 11:04:00,
2014-01-07 05:10:00,18.6,11.7,30.65,SW,235,0.0,21.0,74,0.00,,,0.00,Wunderground v.1.15,2014-01-07 11:10:00,
2014-01-07 05:16:00,18.5,11.6,30.65,SW,235,0.0,21.0,74,0.00,,,0.00,Wunderground v.1.15,2014-01-07 11:16:00,
2014-01-07 05:21:00,18.4,11.8,30.65,SW,235,0.0,21.0,75,0.00,,,0.00,Wunderground v.1.15,2014-01-07 11:21:00,
2014-01-07 05:27:00,18.1,11.5,30.65,SW,235,0.0,21.0,75,0.00,,,0.00,Wunderground v.1.15,2014-01-07 11:27:00,
2014-01-07 05:32:00,18.3,11.7,30.65,WSW,238,0.0,21.0,75,0.00,,,0.00,Wunderground v.1.15,2014-01-07 11:32:00,
2014-01-07 05:38:00,18.2,11.6,30.65,WSW,242,0.0,21.0,75,0.00,,,0.00,Wunderground v.1.15,2014-01-07 11:38:00,
2014-01-07 05:43:00,18.0,11.4,30.65,SW,229,1.0,21.0,75,0.00,,,0.00,Wunderground v.1.15,2014-01-07 11:43:00,
2014-01-07 05:49:00,17.9,11.6,30.65,SW,233,1.0,21.0,76,0.00,,,0.00,Wunderground v.1.15,2014-01-07 11:49:00,
2014-01-07 05:55:00,17.8,11.5,30.65,SW,231,1.0,21.0,76,0.00,,,0.00,Wunderground v.1.15,2014-01-07 11:55:00,
2014-01-07 06:00:00,17.9,11.6,30.65,SW,229,1.0,21.0,76,0.00,,,0.00,Wunderground v.1.15,2014-01-07 12:00:00,
2014-01-07 06:06:00,18.2,11.9,30.65,WSW,240,2.0,21.0,76,0.00,,,0.00,Wunderground v.1.15,2014-01-07 12:06:00,
2014-01-07 06:11:00,18.5,11.9,30.65,SW,228,2.0,21.0,75,0.00,,,0.00,Wunderground v.1.15,2014-01-07 12:11:00,
2014-01-07 06:17:00,18.6,12.0,30.65,SW,225,2.0,21.0,75,0.00,,,0.00,Wunderground v.1.15,2014-01-07 12:17:00,
2014-01-07 06:23:00,18.7,12.1,30.65,SW,225,2.0,21.0,75,0.00,,,0.00,Wunderground v.1.15,2014-01-07 12:23:00,
2014-01-07 06:29:00,18.8,12.2,30.65,SW,215,2.0,21.0,75,0.00,,,0.00,Wunderground v.1.15,2014-01-07 12:29:00,
2014-01-07 06:35:00,18.7,12.1,30.65,SW,215,1.0,21.0,75,0.00,,,0.00,Wunderground v.1.15,2014-01-07 12:35:00,
2014-01-07 06:40:00,18.8,12.2,30.65,SW,215,1.0,21.0,75,0.00,,,0.00,Wunderground v.1.15,2014-01-07 12:40:00,
2014-01-07 06:46:00,18.8,11.9,30.64,SSW,207,2.0,21.0,74,0.00,,,0.00,Wunderground v.1.15,2014-01-07 12:46:00,
2014-01-07 06:51:00,18.9,12.0,30.64,South,191,2.0,21.0,74,0.00,,,0.00,Wunderground v.1.15,2014-01-07 12:51:00,
2014-01-07 06:57:00,19.0,11.8,30.64,SW,219,2.0,21.0,73,0.00,,,0.00,Wunderground v.1.15,2014-01-07 12:57:00,
2014-01-07 07:03:00,19.1,11.9,30.64,South,174,2.0,21.0,73,0.00,,,0.00,Wunderground v.1.15,2014-01-07 13:03:00,
2014-01-07 07:08:00,19.1,11.9,30.64,South,177,1.0,21.0,73,0.00,,,0.00,Wunderground v.1.15,2014-01-07 13:08:00,
2014-01-07 07:14:00,19.1,11.6,30.64,SSE,155,1.0,21.0,72,0.00,,,0.00,Wunderground v.1.15,2014-01-07 13:14:00,
2014-01-07 07:19:00,19.2,11.6,30.64,SSE,159,1.0,21.0,72,0.00,,,0.00,Wunderground v.1.15,2014-01-07 13:19:00,
2014-01-07 07:25:00,19.3,11.7,30.64,SSE,153,1.0,21.0,72,0.00,,,0.00,Wunderground v.1.15,2014-01-07 13:25:00,
2014-01-07 07:31:00,19.2,11.6,30.64,SE,141,1.0,21.0,72,0.00,,,0.00,Wunderground v.1.15,2014-01-07 13:31:00,
2014-01-07 07:36:00,18.9,11.7,30.64,SSE,157,1.0,21.0,73,0.00,,,0.00,Wunderground v.1.15,2014-01-07 13:36:00,
2014-01-07 07:42:00,18.7,11.5,30.64,SE,141,0.0,21.0,73,0.00,,,0.00,Wunderground v.1.15,2014-01-07 13:42:00,
2014-01-07 07:47:00,18.7,11.8,30.64,SE,129,0.0,21.0,74,0.00,,,0.00,Wunderground v.1.15,2014-01-07 13:47:00,
2014-01-07 07:53:00,18.9,12.0,30.63,SE,128,1.0,21.0,74,0.00,,,0.00,Wunderground v.1.15,2014-01-07 13:53:00,
2014-01-07 07:58:00,19.2,12.3,30.63,SE,128,1.0,21.0,74,0.00,,,0.00,Wunderground v.1.15,2014-01-07 13:58:00,
2014-01-07 08:04:00,19.2,12.6,30.63,ESE,121,0.0,21.0,75,0.00,,,0.00,Wunderground v.1.15,2014-01-07 14:04:00,
2014-01-07 08:10:00,19.7,13.1,30.63,SE,131,0.0,21.0,75,0.00,,,0.00,Wunderground v.1.15,2014-01-07 14:10:00,
2014-01-07 08:15:00,20.4,13.7,30.63,SE,146,0.0,21.0,75,0.00,,,0.00,Wunderground v.1.15,2014-01-07 14:15:00,
2014-01-07 08:21:00,21.5,14.2,30.62,South,174,0.0,21.0,73,0.00,,,0.00,Wunderground v.1.15,2014-01-07 14:21:00,
2014-01-07 08:26:00,22.6,14.3,30.62,SE,146,2.0,21.0,70,0.00,,,0.00,Wunderground v.1.15,2014-01-07 14:26:00,
2014-01-07 08:31:00,23.5,14.1,30.63,SW,226,4.0,21.0,67,0.00,,,0.00,Wunderground v.1.15,2014-01-07 14:31:00,
2014-01-07 08:37:00,24.4,14.7,30.62,SW,226,5.0,21.0,66,0.00,,,0.00,Wunderground v.1.15,2014-01-07 14:37:00,
2014-01-07 08:43:00,25.0,14.9,30.62,WSW,256,6.0,21.0,65,0.00,,,0.00,Wunderground v.1.15,2014-01-07 14:43:00,
2014-01-07 08:48:00,25.6,14.4,30.63,SSW,204,7.0,21.0,62,0.00,,,0.00,Wunderground v.1.15,2014-01-07 14:48:00,
2014-01-07 08:54:00,26.3,14.3,30.63,SW,233,8.0,21.0,60,0.00,,,0.00,Wunderground v.1.15,2014-01-07 14:54:00,
2014-01-07 08:59:00,26.9,14.1,30.63,SW,229,9.0,21.0,58,0.00,,,0.00,Wunderground v.1.15,2014-01-07 14:59:00,
2014-01-07 09:05:00,27.1,13.5,30.63,SW,214,11.0,21.0,56,0.00,,,0.00,Wunderground v.1.15,2014-01-07 15:05:00,
2014-01-07 09:10:00,27.4,13.3,30.63,WSW,245,11.0,21.0,55,0.00,,,0.00,Wunderground v.1.15,2014-01-07 15:10:00,
2014-01-07 09:16:00,28.0,13.9,30.63,SSW,212,9.0,21.0,55,0.00,,,0.00,Wunderground v.1.15,2014-01-07 15:16:00,
2014-01-07 09:22:00,28.4,13.9,30.63,SW,231,9.0,21.0,54,0.00,,,0.00,Wunderground v.1.15,2014-01-07 15:22:00,
2014-01-07 09:27:00,28.9,13.9,30.63,West,262,9.0,21.0,53,0.00,,,0.00,Wunderground v.1.15,2014-01-07 15:27:00,
2014-01-07 09:33:00,29.3,13.8,30.63,SW,229,9.0,21.0,52,0.00,,,0.00,Wunderground v.1.15,2014-01-07 15:33:00,
2014-01-07 09:39:00,29.7,13.8,30.63,SW,222,9.0,21.0,51,0.00,,,0.00,Wunderground v.1.15,2014-01-07 15:39:00,
2014-01-07 09:44:00,30.0,13.6,30.63,SW,220,9.0,21.0,50,0.00,,,0.00,Wunderground v.1.15,2014-01-07 15:44:00,
2014-01-07 09:50:00,30.6,14.1,30.63,SW,231,9.0,9.0,50,0.00,,,0.00,Wunderground v.1.15,2014-01-07 15:50:00,
2014-01-07 09:55:00,30.9,13.0,30.63,SSW,193,9.0,21.0,47,0.00,,,0.00,Wunderground v.1.15,2014-01-07 15:55:00,
2014-01-07 10:01:00,30.9,12.5,30.63,SW,229,11.0,21.0,46,0.00,,,0.00,Wunderground v.1.15,2014-01-07 16:01:00,
2014-01-07 10:07:00,31.2,12.8,30.63,SSW,207,10.0,21.0,46,0.00,,,0.00,Wunderground v.1.15,2014-01-07 16:07:00,
2014-01-07 10:12:00,31.7,12.8,30.63,SW,224,9.0,21.0,45,0.00,,,0.00,Wunderground v.1.15,2014-01-07 16:12:00,
2014-01-07 10:18:00,31.9,12.4,30.63,SSW,208,10.0,21.0,44,0.00,,,0.00,Wunderground v.1.15,2014-01-07 16:18:00,
2014-01-07 10:23:00,33.0,13.4,30.63,WSW,240,8.0,21.0,44,0.00,,,0.00,Wunderground v.1.15,2014-01-07 16:23:00,
2014-01-07 10:29:00,33.1,11.9,30.62,SW,225,9.0,21.0,41,0.00,,,0.00,Wunderground v.1.15,2014-01-07 16:29:00,
2014-01-07 10:35:00,33.5,12.3,30.62,SSW,207,9.0,21.0,41,0.00,,,0.00,Wunderground v.1.15,2014-01-07 16:35:00,
2014-01-07 10:41:00,33.9,12.1,30.62,WSW,251,8.0,21.0,40,0.00,,,0.00,Wunderground v.1.15,2014-01-07 16:41:00,
2014-01-07 10:47:00,34.5,10.9,30.62,SSW,195,9.0,21.0,37,0.00,,,0.00,Wunderground v.1.15,2014-01-07 16:47:00,
2014-01-07 10:53:00,34.9,11.2,30.61,SSE,161,10.0,21.0,37,0.00,,,0.00,Wunderground v.1.15,2014-01-07 16:53:00,
2014-01-07 10:58:00,35.3,9.7,30.61,SW,235,10.0,21.0,34,0.00,,,0.00,Wunderground v.1.15,2014-01-07 16:58:00,
2014-01-07 11:04:00,35.6,8.6,30.60,SW,226,11.0,21.0,32,0.00,,,0.00,Wunderground v.1.15,2014-01-07 17:04:00,
2014-01-07 11:10:00,36.0,8.2,30.60,WSW,239,11.0,21.0,31,0.00,,,0.00,Wunderground v.1.15,2014-01-07 17:10:00,
2014-01-07 11:16:00,36.3,9.2,30.60,SSW,199,10.0,21.0,32,0.00,,,0.00,Wunderground v.1.15,2014-01-07 17:16:00,
2014-01-07 11:21:00,36.7,8.9,30.59,South,169,9.0,21.0,31,0.00,,,0.00,Wunderground v.1.15,2014-01-07 17:21:00,
2014-01-07 11:27:00,36.9,9.0,30.59,SSW,204,9.0,21.0,31,0.00,,,0.00,Wunderground v.1.15,2014-01-07 17:27:00,
2014-01-07 11:33:00,37.1,9.2,30.58,SSE,164,9.0,21.0,31,0.00,,,0.00,Wunderground v.1.15,2014-01-07 17:33:00,
2014-01-07 11:39:00,37.6,9.6,30.58,SW,219,8.0,21.0,31,0.00,,,0.00,Wunderground v.1.15,2014-01-07 17:39:00,
2014-01-07 11:45:00,38.0,10.7,30.57,SW,226,8.0,21.0,32,0.00,,,0.00,Wunderground v.1.15,2014-01-07 17:45:00,
2014-01-07 11:51:00,37.8,10.5,30.57,SSW,200,9.0,21.0,32,0.00,,,0.00,Wunderground v.1.15,2014-01-07 17:51:00,
2014-01-07 11:57:00,38.1,10.8,30.56,WSW,255,9.0,21.0,32,0.00,,,0.00,Wunderground v.1.15,2014-01-07 17:57:00,
2014-01-07 12:02:00,38.3,13.0,30.56,SW,217,8.0,21.0,35,0.00,,,0.00,Wunderground v.1.15,2014-01-07 18:02:00,
2014-01-07 12:08:00,38.4,11.8,30.55,SW,229,8.0,21.0,33,0.00,,,0.00,Wunderground v.1.15,2014-01-07 18:08:00,
2014-01-07 12:14:00,38.4,12.4,30.54,SSE,159,9.0,21.0,34,0.00,,,0.00,Wunderground v.1.15,2014-01-07 18:14:00,
2014-01-07 12:20:00,39.1,13.1,30.54,SW,218,10.0,21.0,34,0.00,,,0.00,Wunderground v.1.15,2014-01-07 18:20:00,
2014-01-07 12:26:00,39.3,12.6,30.53,SW,220,9.0,21.0,33,0.00,,,0.00,Wunderground v.1.15,2014-01-07 18:26:00,
2014-01-07 12:32:00,39.5,12.0,30.53,SW,226,9.0,21.0,32,0.00,,,0.00,Wunderground v.1.15,2014-01-07 18:32:00,
2014-01-07 12:38:00,39.6,12.1,30.52,SW,217,9.0,21.0,32,0.00,,,0.00,Wunderground v.1.15,2014-01-07 18:38:00,
2014-01-07 12:43:00,39.7,12.2,30.51,SSW,197,10.0,21.0,32,0.00,,,0.00,Wunderground v.1.15,2014-01-07 18:43:00,
2014-01-07 12:49:00,40.4,12.8,30.51,South,187,10.0,21.0,32,0.00,,,0.00,Wunderground v.1.15,2014-01-07 18:49:00,
2014-01-07 12:55:00,40.9,12.5,30.50,South,172,9.0,21.0,31,0.00,,,0.00,Wunderground v.1.15,2014-01-07 18:55:00,
2014-01-07 13:01:00,41.2,12.8,30.50,SSW,208,10.0,21.0,31,0.00,,,0.00,Wunderground v.1.15,2014-01-07 19:01:00,
2014-01-07 13:06:00,41.6,12.4,30.49,SSW,195,10.0,21.0,30,0.00,,,0.00,Wunderground v.1.15,2014-01-07 19:06:00,
2014-01-07 13:12:00,42.1,12.8,30.49,SSW,208,10.0,21.0,30,0.00,,,0.00,Wunderground v.1.15,2014-01-07 19:12:00,
2014-01-07 13:18:00,42.0,12.0,30.49,SW,225,9.0,21.0,29,0.00,,,0.00,Wunderground v.1.15,2014-01-07 19:18:00,
2014-01-07 13:24:00,42.2,11.4,30.48,South,169,10.0,21.0,28,0.00,,,0.00,Wunderground v.1.15,2014-01-07 19:24:00,
2014-01-07 13:30:00,42.4,10.7,30.48,SW,221,11.0,11.0,27,0.00,,,0.00,Wunderground v.1.15,2014-01-07 19:30:00,
2014-01-07 13:36:00,43.2,12.2,30.47,SSW,212,11.0,21.0,28,0.00,,,0.00,Wunderground v.1.15,2014-01-07 19:36:00,
2014-01-07 13:41:00,43.8,11.9,30.47,SW,218,10.0,21.0,27,0.00,,,0.00,Wunderground v.1.15,2014-01-07 19:41:00,
2014-01-07 13:47:00,43.5,10.8,30.47,WSW,238,11.0,21.0,26,0.00,,,0.00,Wunderground v.1.15,2014-01-07 19:47:00,
2014-01-07 13:53:00,43.4,11.6,30.47,WSW,249,12.0,21.0,27,0.00,,,0.00,Wunderground v.1.15,2014-01-07 19:53:00,
2014-01-07 13:59:00,43.9,11.2,30.47,SW,226,10.0,21.0,26,0.00,,,0.00,Wunderground v.1.15,2014-01-07 19:59:00,
2014-01-07 14:05:00,44.1,11.3,30.46,SW,226,11.0,21.0,26,0.00,,,0.00,Wunderground v.1.15,2014-01-07 20:05:00,
2014-01-07 14:10:00,44.1,12.2,30.46,WSW,248,11.0,21.0,27,0.00,,,0.00,Wunderground v.1.15,2014-01-07 20:10:00,
2014-01-07 14:16:00,44.4,12.5,30.45,SW,222,10.0,21.0,27,0.00,,,0.00,Wunderground v.1.15,2014-01-07 20:16:00,
2014-01-07 14:22:00,44.6,10.9,30.45,SW,221,11.0,21.0,25,0.00,,,0.00,Wunderground v.1.15,2014-01-07 20:22:00,
2014-01-07 14:28:00,44.6,11.8,30.44,SW,233,12.0,21.0,26,0.00,,,0.00,Wunderground v.1.15,2014-01-07 20:28:00,
2014-01-07 14:34:00,45.1,12.2,30.44,SW,231,11.0,21.0,26,0.00,,,0.00,Wunderground v.1.15,2014-01-07 20:34:00,
2014-01-07 14:39:00,45.2,11.4,30.44,SSW,208,12.0,21.0,25,0.00,,,0.00,Wunderground v.1.15,2014-01-07 20:39:00,
2014-01-07 14:45:00,45.5,10.7,30.43,SW,214,13.0,21.0,24,0.00,,,0.00,Wunderground v.1.15,2014-01-07 20:45:00,
2014-01-07 14:51:00,45.2,11.4,30.43,SSW,207,13.0,21.0,25,0.00,,,0.00,Wunderground v.1.15,2014-01-07 20:51:00,
2014-01-07 14:57:00,45.2,10.5,30.43,SW,215,13.0,21.0,24,0.00,,,0.00,Wunderground v.1.15,2014-01-07 20:57:00,
2014-01-07 15:03:00,45.4,10.7,30.43,SW,219,13.0,21.0,24,0.00,,,0.00,Wunderground v.1.15,2014-01-07 21:03:00,
2014-01-07 15:08:00,45.9,12.0,30.43,SW,228,12.0,21.0,25,0.00,,,0.00,Wunderground v.1.15,2014-01-07 21:08:00,
2014-01-07 15:14:00,45.8,11.9,30.42,SW,229,12.0,21.0,25,0.00,,,0.00,Wunderground v.1.15,2014-01-07 21:14:00,
2014-01-07 15:20:00,45.7,10.9,30.42,SSW,210,12.0,21.0,24,0.00,,,0.00,Wunderground v.1.15,2014-01-07 21:20:00,
2014-01-07 15:26:00,46.1,12.2,30.42,SW,236,10.0,21.0,25,0.00,,,0.00,Wunderground v.1.15,2014-01-07 21:26:00,
2014-01-07 15:32:00,45.9,12.0,30.42,SW,219,11.0,21.0,25,0.00,,,0.00,Wunderground v.1.15,2014-01-07 21:32:00,
2014-01-07 15:38:00,45.8,11.9,30.42,SSE,167,11.0,21.0,25,0.00,,,0.00,Wunderground v.1.15,2014-01-07 21:38:00,
2014-01-07 15:44:00,45.8,11.9,30.42,South,191,11.0,21.0,25,0.00,,,0.00,Wunderground v.1.15,2014-01-07 21:44:00,
2014-01-07 15:49:00,45.6,11.7,30.42,SSE,159,11.0,21.0,25,0.00,,,0.00,Wunderground v.1.15,2014-01-07 21:49:00,
2014-01-07 15:55:00,45.4,11.6,30.42,SSW,195,11.0,21.0,25,0.00,,,0.00,Wunderground v.1.15,2014-01-07 21:55:00,
2014-01-07 16:01:00,45.1,12.2,30.42,SW,219,11.0,21.0,26,0.00,,,0.00,Wunderground v.1.15,2014-01-07 22:01:00,
2014-01-07 16:06:00,44.9,11.1,30.42,South,172,11.0,21.0,25,0.00,,,0.00,Wunderground v.1.15,2014-01-07 22:06:00,
2014-01-07 16:12:00,44.7,11.0,30.42,South,174,11.0,21.0,25,0.00,,,0.00,Wunderground v.1.15,2014-01-07 22:12:00,
2014-01-07 16:18:00,44.5,11.7,30.42,SE,139,11.0,21.0,26,0.00,,,0.00,Wunderground v.1.15,2014-01-07 22:18:00,
2014-01-07 16:24:00,44.5,11.7,30.42,SW,217,11.0,21.0,26,0.00,,,0.00,Wunderground v.1.15,2014-01-07 22:24:00,
2014-01-07 16:30:00,44.4,11.6,30.42,South,174,10.0,10.0,26,0.00,,,0.00,Wunderground v.1.15,2014-01-07 22:30:00,
2014-01-07 16:36:00,44.0,11.3,30.42,SSW,194,11.0,21.0,26,0.00,,,0.00,Wunderground v.1.15,2014-01-07 22:36:00,
2014-01-07 16:42:00,43.7,11.8,30.42,SSW,205,11.0,21.0,27,0.00,,,0.00,Wunderground v.1.15,2014-01-07 22:42:00,
2014-01-07 16:48:00,43.7,11.8,30.42,SW,229,10.0,21.0,27,0.00,,,0.00,Wunderground v.1.15,2014-01-07 22:48:00,
2014-01-07 16:54:00,43.3,11.5,30.42,South,190,11.0,21.0,27,0.00,,,0.00,Wunderground v.1.15,2014-01-07 22:54:00,
2014-01-07 17:00:00,42.9,12.0,30.42,SSW,204,10.0,21.0,28,0.00,,,0.00,Wunderground v.1.15,2014-01-07 23:00:00,
2014-01-07 17:06:00,42.4,12.3,30.42,South,172,9.0,21.0,29,0.00,,,0.00,Wunderground v.1.15,2014-01-07 23:06:00,
2014-01-07 17:11:00,42.1,12.1,30.42,SSW,212,11.0,21.0,29,0.00,,,0.00,Wunderground v.1.15,2014-01-07 23:11:00,
2014-01-07 17:17:00,41.8,12.6,30.42,SSW,208,11.0,21.0,30,0.00,,,0.00,Wunderground v.1.15,2014-01-07 23:17:00,
2014-01-07 17:23:00,41.6,12.4,30.41,SSW,207,9.0,21.0,30,0.00,,,0.00,Wunderground v.1.15,2014-01-07 23:23:00,
2014-01-07 17:29:00,41.4,13.0,30.41,SSW,204,9.0,21.0,31,0.00,,,0.00,Wunderground v.1.15,2014-01-07 23:29:00,
2014-01-07 17:34:00,41.2,12.8,30.41,SSW,211,10.0,21.0,31,0.00,,,0.00,Wunderground v.1.15,2014-01-07 23:34:00,
2014-01-07 17:40:00,41.1,12.7,30.41,SSE,166,8.0,21.0,31,0.00,,,0.00,Wunderground v.1.15,2014-01-07 23:40:00,
2014-01-07 17:46:00,40.9,12.5,30.41,SSE,156,7.0,21.0,31,0.00,,,0.00,Wunderground v.1.15,2014-01-07 23:46:00,
2014-01-07 17:52:00,40.7,12.4,30.41,SSE,167,7.0,21.0,31,0.00,,,0.00,Wunderground v.1.15,2014-01-07 23:52:00,
2014-01-07 17:58:00,40.6,12.3,30.41,SSE,157,7.0,21.0,31,0.00,,,0.00,Wunderground v.1.15,2014-01-07 23:58:00,
2014-01-07 18:04:00,40.5,12.2,30.40,SSW,198,8.0,21.0,31,0.00,,,0.00,Wunderground v.1.15,2014-01-08 00:04:00,
2014-01-07 18:09:00,40.4,12.1,30.40,SSE,163,8.0,21.0,31,0.00,,,0.00,Wunderground v.1.15,2014-01-08 00:09:00,
2014-01-07 18:15:00,40.3,11.3,30.40,SSW,198,7.0,21.0,30,0.00,,,0.00,Wunderground v.1.15,2014-01-08 00:15:00,
2014-01-07 18:20:00,40.2,11.2,30.39,SSW,213,8.0,21.0,30,0.00,,,0.00,Wunderground v.1.15,2014-01-08 00:20:00,
2014-01-07 18:26:00,40.2,11.2,30.40,SSW,210,9.0,21.0,30,0.00,,,0.00,Wunderground v.1.15,2014-01-08 00:26:00,
2014-01-07 18:32:00,40.1,11.8,30.40,South,174,10.0,21.0,31,0.00,,,0.00,Wunderground v.1.15,2014-01-08 00:32:00,
2014-01-07 18:38:00,40.1,11.1,30.40,SSW,207,9.0,21.0,30,0.00,,,0.00,Wunderground v.1.15,2014-01-08 00:38:00,
2014-01-07 18:44:00,40.1,11.8,30.40,South,177,9.0,21.0,31,0.00,,,0.00,Wunderground v.1.15,2014-01-08 00:44:00,
2014-01-07 18:50:00,40.0,11.8,30.40,SSW,204,8.0,21.0,31,0.00,,,0.00,Wunderground v.1.15,2014-01-08 00:50:00,
2014-01-07 18:56:00,39.9,12.4,30.40,SW,215,8.0,21.0,32,0.00,,,0.00,Wunderground v.1.15,2014-01-08 00:56:00,
2014-01-07 19:02:00,39.8,11.6,30.40,SSE,158,8.0,21.0,31,0.00,,,0.00,Wunderground v.1.15,2014-01-08 01:02:00,
2014-01-07 19:08:00,39.7,12.2,30.40,SSW,211,8.0,21.0,32,0.00,,,0.00,Wunderground v.1.15,2014-01-08 01:08:00,
2014-01-07 19:13:00,39.7,11.5,30.40,SW,228,8.0,21.0,31,0.00,,,0.00,Wunderground v.1.15,2014-01-08 01:13:00,
2014-01-07 19:19:00,39.6,12.1,30.40,SSW,213,10.0,21.0,32,0.00,,,0.00,Wunderground v.1.15,2014-01-08 01:19:00,
2014-01-07 19:25:00,39.5,12.0,30.40,SSW,200,10.0,21.0,32,0.00,,,0.00,Wunderground v.1.15,2014-01-08 01:25:00,
2014-01-07 19:31:00,39.5,12.0,30.39,South,179,9.0,21.0,32,0.00,,,0.00,Wunderground v.1.15,2014-01-08 01:31:00,
2014-01-07 19:36:00,39.4,12.6,30.39,SSE,166,8.0,21.0,33,0.00,,,0.00,Wunderground v.1.15,2014-01-08 01:36:00,
2014-01-07 19:42:00,39.3,12.6,30.39,SSE,163,8.0,21.0,33,0.00,,,0.00,Wunderground v.1.15,2014-01-08 01:42:00,
2014-01-07 19:48:00,39.2,12.5,30.39,SSW,201,9.0,21.0,33,0.00,,,0.00,Wunderground v.1.15,2014-01-08 01:48:00,
2014-01-07 19:54:00,39.1,11.7,30.39,SSW,212,9.0,21.0,32,0.00,,,0.00,Wunderground v.1.15,2014-01-08 01:54:00,
2014-01-07 19:59:00,39.0,11.6,30.39,South,191,9.0,21.0,32,0.00,,,0.00,Wunderground v.1.15,2014-01-08 01:59:00,
2014-01-07 20:05:00,38.9,12.2,30.39,SW,214,10.0,21.0,33,0.00,,,0.00,Wunderground v.1.15,2014-01-08 02:05:00,
2014-01-07 20:11:00,38.9,12.2,30.39,South,181,10.0,21.0,33,0.00,,,0.00,Wunderground v.1.15,2014-01-08 02:11:00,
2014-01-07 20:17:00,38.8,12.1,30.39,SSW,211,10.0,21.0,33,0.00,,,0.00,Wunderground v.1.15,2014-01-08 02:17:00,
2014-01-07 20:22:00,38.8,12.1,30.39,SSW,203,11.0,21.0,33,0.00,,,0.00,Wunderground v.1.15,2014-01-08 02:22:00,
2014-01-07 20:28:00,38.8,12.1,30.39,SW,224,11.0,21.0,33,0.00,,,0.00,Wunderground v.1.15,2014-01-08 02:28:00,
2014-01-07 20:34:00,38.7,12.7,30.40,SW,229,10.0,21.0,34,0.00,,,0.00,Wunderground v.1.15,2014-01-08 02:34:00,
2014-01-07 20:40:00,38.7,12.0,30.40,SSW,200,9.0,21.0,33,0.00,,,0.00,Wunderground v.1.15,2014-01-08 02:40:00,
2014-01-07 20:45:00,38.7,12.7,30.40,SSW,210,10.0,21.0,34,0.00,,,0.00,Wunderground v.1.15,2014-01-08 02:45:00,
2014-01-07 20:51:00,38.7,12.7,30.39,SW,219,10.0,16.0,34,0.00,,,0.00,Wunderground v.1.15,2014-01-08 02:51:00,
2014-01-07 20:57:00,38.7,12.7,30.39,South,187,10.0,21.0,34,0.00,,,0.00,Wunderground v.1.15,2014-01-08 02:57:00,
2014-01-07 21:03:00,38.7,12.7,30.39,SW,219,12.0,21.0,34,0.00,,,0.00,Wunderground v.1.15,2014-01-08 03:03:00,
2014-01-07 21:08:00,38.7,12.0,30.39,SW,226,12.0,21.0,33,0.00,,,0.00,Wunderground v.1.15,2014-01-08 03:08:00,
2014-01-07 21:14:00,38.6,11.9,30.39,SW,221,11.0,21.0,33,0.00,,,0.00,Wunderground v.1.15,2014-01-08 03:14:00,
2014-01-07 21:20:00,38.6,12.6,30.39,SSW,201,10.0,10.0,34,0.00,,,0.00,Wunderground v.1.15,2014-01-08 03:20:00,
2014-01-07 21:25:00,38.6,12.6,30.40,SW,217,10.0,21.0,34,0.00,,,0.00,Wunderground v.1.15,2014-01-08 03:25:00,
2014-01-07 21:31:00,38.6,12.6,30.39,SW,226,11.0,21.0,34,0.00,,,0.00,Wunderground v.1.15,2014-01-08 03:31:00,
2014-01-07 21:37:00,38.6,12.6,30.39,SW,217,12.0,21.0,34,0.00,,,0.00,Wunderground v.1.15,2014-01-08 03:37:00,
2014-01-07 21:43:00,38.5,13.2,30.39,SW,229,11.0,21.0,35,0.00,,,0.00,Wunderground v.1.15,2014-01-08 03:43:00,
2014-01-07 21:49:00,38.5,13.8,30.38,South,187,11.0,21.0,36,0.00,,,0.00,Wunderground v.1.15,2014-01-08 03:49:00,
2014-01-07 21:54:00,38.5,13.8,30.38,SW,217,11.0,21.0,36,0.00,,,0.00,Wunderground v.1.15,2014-01-08 03:54:00,
2014-01-07 22:00:00,38.5,14.4,30.39,South,180,11.0,11.0,37,0.00,,,0.00,Wunderground v.1.15,2014-01-08 04:00:00,
2014-01-07 22:06:00,38.5,14.4,30.38,SSW,213,11.0,21.0,37,0.00,,,0.00,Wunderground v.1.15,2014-01-08 04:06:00,
2014-01-07 22:12:00,38.6,14.5,30.38,SW,218,12.0,21.0,37,0.00,,,0.00,Wunderground v.1.15,2014-01-08 04:12:00,
2014-01-07 22:17:00,38.5,15.1,30.38,South,186,11.0,21.0,38,0.00,,,0.00,Wunderground v.1.15,2014-01-08 04:17:00,
2014-01-07 22:23:00,38.5,15.1,30.38,South,191,10.0,21.0,38,0.00,,,0.00,Wunderground v.1.15,2014-01-08 04:23:00,
2014-01-07 22:29:00,38.5,15.7,30.38,SSW,211,10.0,21.0,39,0.00,,,0.00,Wunderground v.1.15,2014-01-08 04:29:00,
2014-01-07 22:35:00,38.5,15.7,30.38,SSW,213,10.0,21.0,39,0.00,,,0.00,Wunderground v.1.15,2014-01-08 04:35:00,
2014-01-07 22:41:00,38.5,16.2,30.38,SSW,211,10.0,21.0,40,0.00,,,0.00,Wunderground v.1.15,2014-01-08 04:41:00,
2014-01-07 22:46:00,38.5,16.2,30.38,SSW,210,9.0,21.0,40,0.00,,,0.00,Wunderground v.1.15,2014-01-08 04:46:00,
2014-01-07 22:52:00,38.5,16.8,30.38,SW,233,9.0,21.0,41,0.00,,,0.00,Wunderground v.1.15,2014-01-08 04:52:00,
2014-01-07 22:57:00,38.5,16.8,30.38,SSW,201,10.0,21.0,41,0.00,,,0.00,Wunderground v.1.15,2014-01-08 04:57:00,
2014-01-07 23:01:00,38.5,16.8,30.38,SW,235,10.0,12.0,41,0.00,,,0.00,Wunderground v.1.15,2014-01-08 05:01:00,
2014-01-07 23:02:00,38.5,16.8,30.38,SSW,207,11.0,21.0,41,0.00,,,0.00,Wunderground v.1.15,2014-01-08 05:02:00,
2014-01-07 23:03:00,38.5,17.4,30.38,WSW,240,10.0,21.0,42,0.00,,,0.00,Wunderground v.1.15,2014-01-08 05:03:00,
2014-01-07 23:07:00,38.5,17.4,30.38,SW,229,9.0,21.0,42,0.00,,,0.00,Wunderground v.1.15,2014-01-08 05:07:00,
2014-01-07 23:10:00,38.5,17.4,30.37,SW,235,9.0,21.0,42,0.00,,,0.00,Wunderground v.1.15,2014-01-08 05:10:00,
2014-01-07 23:15:00,38.5,17.9,30.37,SSW,204,10.0,21.0,43,0.00,,,0.00,Wunderground v.1.15,2014-01-08 05:15:00,
2014-01-07 23:20:00,38.5,18.4,30.37,SW,219,11.0,21.0,44,0.00,,,0.00,Wunderground v.1.15,2014-01-08 05:20:00,
2014-01-07 23:26:00,38.6,19.1,30.37,SW,226,11.0,21.0,45,0.00,,,0.00,Wunderground v.1.15,2014-01-08 05:26:00,
2014-01-07 23:32:00,38.6,20.1,30.36,SW,215,11.0,21.0,47,0.00,,,0.00,Wunderground v.1.15,2014-01-08 05:32:00,
2014-01-07 23:37:00,38.6,20.6,30.36,SW,225,10.0,21.0,48,0.00,,,0.00,Wunderground v.1.15,2014-01-08 05:37:00,
2014-01-07 23:43:00,38.6,21.1,30.36,SSW,205,10.0,21.0,49,0.00,,,0.00,Wunderground v.1.15,2014-01-08 05:43:00,
2014-01-07 23:48:00,38.7,21.6,30.36,SW,222,9.0,21.0,50,0.00,,,0.00,Wunderground v.1.15,2014-01-08 05:48:00,
2014-01-07 23:54:00,38.7,22.6,30.35,SSW,208,9.0,21.0,52,0.00,,,0.00,Wunderground v.1.15,2014-01-08 05:54:00,
2014-01-07 23:59:00,38.7,23.0,30.35,SSW,209,10.0,21.0,53,0.00,,,0.00,Wunderground v.1.15,2014-01-08 05:59:00,